User: anonymous   Login
Location: Fort Wayne
(41.1310°N, 85.1290°W)
Time: 14:31:04
(UTC-04:00)
Language:

Cosmos 2082 - Orbit

View from above orbital plane
View from above orbital plane
View from above satellite
View from above satellite

Ground track
Ground track

The orbit data is extracted from the following two-line orbital elements,

1 20624U 90046A   17290.13715365  .00000030  00000-0  40301-4 0  9998
2 20624  71.0394 319.3235 0016109 208.6401 151.3838 14.14228613414431
Epoch (UTC): 17 October 2017 03:17:30
Eccentricity: 0.0016109
inclination: 71.0394°
perigee height: 833 km
apogee height: 856 km
right ascension of ascending node: 319.3235°
argument of perigee: 208.6401°
revolutions per day: 14.14228613
mean anomaly at epoch: 151.3838°
orbit number at epoch: 41443

The dashed part of the orbit path shows where the satellite is in the earth's shadow,  

DLR